Location: *
(43.9900°N, 3.4811°E)
Time: 18:13:30
(UTC+00:00)

Cosmos 1937 Rocket - Pass Details

Date: 25 August 2019
Orbit: 747 x 780 km, 74.0° (Epoch: 16 October)

Event Time Altitude Azimuth Distance (km) Brightness Sun altitude
Rises 20:06:56 0° 195° (SSW) 3,238 6.6 -15.9°
Reaches altitude 10° 20:09:17 10° 194° (SSW) 2,319 5.8 -16.3°
Maximum altitude 20:14:34 79° 109° (ESE) 798 3.4 -17.1°
Drops below altitude 10° 20:19:54 10° 23° (NNE) 2,342 6.2 -17.8°
Sets 20:22:17 0° 22° (NNE) 3,274 6.9 -18.2°
